Terug naar catalogus

STARLINK-1226

ActiefCommunicatieVLEO
NORAD 45229·PAYLOAD·🇺🇸 United States

Gelanceerd Feb 17, 2020 vanaf Cape Canaveral Space Force Station

Loading…

Volgende Passages (komende 24 uur)

TLE

VersSource: CelesTrak SupGP

Epoch: Sep 14, 2026, 20:36 UTC

1 45229C 20012BD  26257.85881944  .00047902  00000+0  69789-3 0  2576
2 45229  53.1491 180.8899 0002818 113.7390 235.8535 15.55071045    18

Volg STARLINK-1226 in realtime met AllMySat

Download on the App Store